Regional Weather Roundup
Issued by NWS Newport/Morehead, NC

Current Version | Previous Version | Graphics & Text | Print | Product List | Glossary On
Versions: 1 2 3 4 5 6 7 8 9 10 11 12 13 14 15 16 17 18 19 20 21 22 23 24 25 26 27 28 29 30 31 32 33 34 35 36 37 38 39 40 41 42 43 44 45 46 47 48 49 50
000 ASUS42 KMHX 040225 RWRMHX WEATHER ROUNDUP FOR EASTERN NORTH CAROLINA NATIONAL WEATHER SERVICE NEWPORT/MOREHEAD CITY NC 1000 PM EDT THU SEP 03 2015 NOTE: "FAIR" INDICATES FEW OR NO CLOUDS BELOW 12,000 FEET WITH NO SIGNIFICANT WEATHER AND/OR OBSTRUCTIONS TO VISIBILITY NCZ015>017-031-032-045>047-102-103-040300- NORTH COAST CITY SKY/WX TMP DP RH WIND PRES REMARKS EDENTON PTCLDY 74 72 91 CALM 29.91R ELIZABETH CITY CLEAR 73 71 93 CALM 29.90S KITTY HAWK CLEAR 78 71 80 SW3 29.89S MANTEO CLEAR 79 72 78 SW5 29.90S $$ NCZ045>047-081-094-103-104-040300- CENTRAL COAST CITY SKY/WX TMP DP RH WIND PRES REMARKS FRISCO PTCLDY 78 72 81 W5 29.90R SWANQUARTER N/A 81 N/A N/A SW3 29.85S $$ NCZ095-097-098-100-101-040300- SOUTHERN COAST CITY SKY/WX TMP DP RH WIND PRES REMARKS BEAUFORT PTCLDY 78 75 90 W5 29.90S CEDAR ISLAND N/A 79 N/A N/A SW2 29.94S JACKSONVILLE PTCLDY 75 72 90 SW6 29.91R PINEY ISLAND CLEAR N/A N/A N/A SW5 29.90S WILMINGTON MOCLDY 73 70 90 CALM 29.91R $$ NCZ011>013-027>030-043-044-078>080-089-090>093-098-040300- COASTAL PLAIN CITY SKY/WX TMP DP RH WIND PRES REMARKS AHOSKIE MOCLDY 73 72 96 CALM 29.91S FOG CLINTON MOCLDY 75 71 88 CALM 29.92S ELIZABETHTOWN PTCLDY 75 72 90 CALM 29.92R GOLDSBORO PTCLDY 76 72 87 E2 29.90R GREENVILLE PTCLDY 73 73 100 CALM 29.93S FOG HAVELOCK PTCLDY 76 72 87 SW5 29.91R KENANSVILLE N/A 72 71 96 CALM 29.92S KINSTON CLEAR 74 72 94 CALM 29.92R NEW BERN PTCLDY 76 73 91 CALM 29.92R RICHLANDS PTCLDY 75 70 83 CALM 29.91S ROCKY MOUNT PTCLDY 76 73 91 CALM 29.92R WASHINGTON CLEAR 74 72 93 CALM 29.91R WHITEVILLE MOCLDY 74 69 84 CALM 29.91R $$ AMZ130-135-150-152-154-156-158-170-250-252-270-ANZ085-086-088-633-658-670-040300- MARINE OBSERVATIONS STATION/POSITION TIME TEMP WIND PRES WAVE SWELL AIR SEA DIR/SP/G HT/PER HT/PER (UTC) (F) (DEG/KT/KT) (MB) (FT/S) (FT/S) CHESAPEAKE LIGHT 0200 80 210/ 6/ 7 1013.1 64 E VA BEACH 0150 79 79 260/ 2/ 4 1012.0 1/10 2/10 DUCK 0200 80 81 220/ 6/ 7 1011.8 2 E DUCK 0111 80 N/A 1/13 OREGON INLET 0200 81 83 220/ 6/ 7 1012.3 13E OREGON INLT 0200 81 N/A 1/13 HATTERAS CG 0200 79 84 230/ 4/ 6 1012.3 DIAMOND BUOY 0150 81 85 280/ 8/ 8 1012.6 1/12 2/12 CAPE LOOKOUT 0200 80 270/ 5/ 7 1012.2 BEAUFORT LAB 0200 80 83 240/ 3/ 5 1011.9 30 SE NEW RVR IN 0108 81 82 260/ 10/ 14 1012.9 30 SE NEW RVR IN 0125 82 N/A 2/13 27 SE WRIGHTSVLE 0200 77 82 300/ 6/ 8 N/A 5 SE WRIGHTSVLE NOT AVBL 225 S CAPE HAT 0150 83 84 310/ 6/ 8 1012.9 2/12 2/12 41 SE CHARLESTON 0150 81 84 200/ 6/ 8 1012.3 1/ 8 2/ 8 $$

USA.gov is the U.S. government's official web portal to all federal, state and local government web resources and services.